Regional Weather Roundup
Issued by NWS Cleveland, OH

Home | Current Version | Previous Version | Graphics & Text | Print | Product List | Glossary On
Versions: 1 2 3 4 5 6 7 8 9 10 11 12 13 14 15 16 17 18 19 20 21 22 23 24 25 26 27 28 29 30 31 32 33 34 35 36 37 38 39 40 41 42 43 44 45 46 47 48 49 50
000
ASUS41 KCLE 190610
RWRCLE
OHIO REGIONAL WEATHER ROUNDUP
NATIONAL WEATHER SERVICE WILMINGTON, OH
100 AM EST SUN NOV 19 2017

NOTE: "FAIR" INDICATES FEW OR NO CLOUDS BELOW 12,000 FEET WITH NO
SIGNIFICANT WEATHER AND/OR OBSTRUCTIONS TO VISIBILITY.

OHZ001>008-015>018-024>027-034-035-043-044-190700-
   NORTHWEST OHIO

CITY           SKY/WX    TMP DP  RH WIND       PRES   REMARKS
DEFIANCE       CLOUDY    39  34  82 NW13G21   29.67R
FINDLAY        MOCLDY    40  33  76 NW18      29.62R
TOLEDO EXPRESS MOCLDY    40  34  79 NW18G24   29.61R
TOLEDO EXEC    CLOUDY    40  33  76 NW18G25   29.60R
LIMA           NOT AVBL
$$

OHZ009>014-019>023-028>033-038-089-190700-
   NORTHEAST OHIO

CITY           SKY/WX    TMP DP  RH WIND       PRES   REMARKS
CLE-HOPKINS    LGT RAIN  39  36  89 NW17G33   29.48R
CLE-LAKEFRONT  LGT RAIN  42  37  82 NW33G44   29.43R
CUY CO. ARPT   NOT AVBL
LORAIN-ELYRIA  LGT RAIN  38  32  79 NW23G36   29.51R
ASHTABULA      LGT RAIN  40  38  93 NW15G33   29.33R
AKRON-CANTON   LGT RAIN  37  33  85 NW21      29.43R
WOOSTER        LGT RAIN  35  34  96 NW22G28   29.49R FOG     WCI  23
MANSFIELD      CLOUDY    36  35  96 W13G26    29.54R
YOUNGSTOWN     LGT RAIN  38  35  89 NW18G35   29.32R
$$

OHZ042-051>053-060>062-070>072-077>081-190700-
  SOUTHWEST OHIO

CITY           SKY/WX    TMP DP  RH WIND       PRES   REMARKS
CINC-COVINGTON CLOUDY    41  39  93 NW18G30   29.77R
CINC-LUNKEN    LGT RAIN  42  41  96 W15G26    29.78R
HAMILTON       LGT RAIN  42  39  89 W12G21    29.77R
DAYTON         CLOUDY    40  38  93 NW17G25   29.70R
WRIGHT-PAT AFB CLOUDY    42  39  89 W15G23    29.69R
DAYTON GENERAL CLOUDY    42  37  82 NW14G23   29.71R
WILMINGTON     CLOUDY    40  38  93 NW14G25   29.70R
$$

OHZ036-037-039>041-045>050-054>059-063>069-073>076-082>088-190700-
  CENTRAL AND SOUTHEAST OHIO

CITY           SKY/WX    TMP DP  RH WIND       PRES   REMARKS
COLUMBUS       CLOUDY    40  39  97 NW23G32   29.62R
OSU AIRPORT    CLOUDY    39  36  89 NW20G32   29.62R
BOLTON FIELD   CLOUDY    39  36  89 NW14G25   29.64R
RICKENBACK AFB CLOUDY    38  37  94 NW17G23   29.64R
NEWARK         CLOUDY    39  36  89 W17G25    29.59R
MARION         CLOUDY    39  34  82 NW18G31   29.61R
LANCASTER      CLOUDY    38  36  92 W15G25    29.63R
ZANESVILLE     LGT RAIN  37  34  89 W14G29    29.56R
NEW PHILLY     LGT RAIN  38  34  85 W17G24    29.49R
$$




USA.gov is the U.S. government's official web portal to all federal, state and local government web resources and services.